AirNav   ProFlight Series 2 Aviation Headset
 
 522 users online  

00OI Miami Valley Hospital Heliport
Dayton, Ohio, USA

GOING TO DAYTON?


FAA INFORMATION EFFECTIVE 13 AUGUST 2020

Location

FAA Identifier: 00OI
Lat/Long: 39-44-41.7082N 084-11-14.1406W
39-44.695137N 084-11.235677W
39.7449189,-84.1872613
(estimated)
Elevation: 847 ft. / 258 m (estimated)
Variation: 06W (2015)
Time zone: UTC -4 (UTC -5 during Standard Time)
Zip code: 45409

Heliport Operations

Heliport use: Private use, MEDICAL USE.
Activation date: 12/1983
Control tower: no
ARTCC: INDIANAPOLIS CENTER
FSS: DAYTON FLIGHT SERVICE STATION
Attendance: CONTINUOUS
Wind indicator: yes
Segmented circle: no
Beacon: white-green-yellow (heliport)
Operates sunset to sunrise.

Heliport Communications

UNICOM: 123.05
WX ASOS at MGY (10 nm S): 118.375 (937-885-2171)
WX AWOS-3 at I19 (10 nm E): 118.525 (937-372-4668)
WX ASOS at DAY (10 nm N): PHONE 937-415-6819
WX AWOS-3 at MWO (16 nm SW): 120.025 (513-422-3505)
WX AWOS-3PT at SGH (17 nm E): 134.975 (937-324-4532)
WX AWOS-3 at I68 (17 nm S): 120.55 (513-934-5500)

Nearby radio navigation aids

VOR radial/distance  VOR name  Freq  Var
DQNr150/18.9DAYTON VOR/DME114.5001W
MXQr321/26.0MIDWEST VOR/DME112.9004W
RODr196/33.2ROSEWOOD VORTAC117.5005W

 
NDB name  Hdg/Dist  Freq  Var  ID
BRUNY138/9.231506WAT .- -
ONIDA036/11.822304WMW -- .--
HOOK FIELD043/19.023904WHKF .... -.- ..-.
CLARK COUNTY252/20.334104WCCJ -.-. -.-. .---
COURT HOUSE289/37.741406WCSS -.-. ... ...

Heliport Services

Runway Information

Helipad H1

Dimensions: 42 x 42 ft. / 13 x 13 m
Surface: concrete
ROOFTOP.
Latitude: 39-44.695137N
Longitude: 084-11.235677W
Elevation: 847.0 ft.
Traffic pattern: leftleft

Heliport Ownership and Management from official FAA records

Ownership: Privately-owned
Owner: MIAMI VALLEY HOSPITAL
1 WYOMING ST
DAYTON, OH 45409-2722
Phone 513-220-2221
Manager: CANDACE SKIDMORE
1 WYOMING ST
DAYTON, OH 45409-2722
Phone 513-220-2044
ADNL CTC: BETH CALCIDISE 937-208-4347 KEITH SHIVERS 7309 WATERWAY DR WAYNESVILLE OH 45068.

Heliport Operational Statistics

Aircraft based on the field: 1
Helicopters: 1
    

Additional Remarks

FOR CD CTC COLUMBUS APCH AT 614-338-8537

Instrument Procedures

There are no published instrument procedures at 00OI.

Some nearby airports with instrument procedures:

KFFO - Wright-Patterson Air Force Base (8 nm NE)
KMGY - Dayton-Wright Brothers Airport (10 nm S)
I19 - Greene County-Lewis A Jackson Regional Airport (10 nm E)
KDAY - James M Cox Dayton International Airport (10 nm N)
3I7 - Dayton-Phillipsburg Airport (14 nm NW)
KMWO - Middletown Regional Airport/Hook Field (16 nm SW)
KSGH - Springfield-Beckley Municipal Airport (17 nm E)
I68 - Warren County Airport/John Lane Field (17 nm S)
 
Loc | Ops | Rwys | IFR | FBO | Links
Com | Nav | Svcs | Stats | Notes
Area around 00OI (Miami Valley Hospital Heliport)
 
Road maps at: MapQuest Bing Google
 
Aerial photo
No photo
 
Sectional chart

 
Airport distance calculator
Flying to Miami Valley Hospital Heliport? Find the distance to fly.

From to 00OI

Sunrise and sunset
Times for 13-Aug-2020
 Local
(UTC-4)
 Zulu
(UTC)
Morning civil twilight06:2010:20
Sunrise06:4910:49
Sunset20:3400:34
Evening civil twilight21:0301:03

Current date and time
Zulu (UTC)  13-Aug-2020 10:50:26
Local (UTC-4)  13-Aug-2020 06:50:26
 
METAR
KFFO 
8nm NE 
130956Z AUTO 00000KT 10SM CLR 19/16 A3007 RMK AO2 SLP180 T01870156
KMGY 
9nm S 
130953Z AUTO 07007KT 10SM CLR 20/17 A3006 RMK AO2 SLP172 T02000172 TSNO
KDAY 
9nm N 
130956Z 05003KT 10SM FEW050 FEW250 19/16 A3009 RMK AO2 SLP181 T01890161 $
KMWO 
16nm SW 
131035Z AUTO 00000KT 10SM CLR 19/18 A3008 RMK AO2 T01860181
KI68 
17nm S 
131035Z AUTO 09003KT 10SM CLR 20/20 A3008 RMK AO1 T02020202
KSGH 
18nm E 
130956Z AUTO 09005KT 10SM CLR 17/17 A3009 RMK AO2 SLP183 T01670167 PNO $
TAF
KFFO 
8nm NE 
130333Z 1303/1409 VRB06KT 9999 FEW030 QNH2998INS TX29/1320Z TN18/1311Z
KDAY 
9nm N 
130536Z 1306/1406 04004KT P6SM FEW045 SCT250 FM131400 04007KT P6SM SCT040 BKN250 FM140300 02005KT P6SM FEW045 OVC250
NOTAMs
Click for the latest NOTAMs
NOTAMs are issued by the DoD/FAA and will open in a separate window not controlled by AirNav.

 

 
 

Would you like to see your business listed on this page?

 If your business provides an interesting product or service to pilots, flight crews, aircraft, or users of the Miami Valley Hospital Heliport, you should consider listing it here.  To start the listing process, click on the button below
 
Add a business
 

Other Pages about Miami Valley Hospital Heliport

Update a link
 
Copyright © AirNav, LLC. All rights reserved. Privacy Policy  Contact